Regional Weather Roundup
Issued by NWS Little Rock, AR

Home | Current Version | Previous Version | Graphics & Text | Print | Product List | Glossary On
Versions: 1 2 3 4 5 6 7 8 9 10 11 12 13 14 15 16 17 18 19 20 21 22 23 24 25 26 27 28 29 30 31 32 33 34 35 36 37 38 39 40 41 42 43 44 45 46 47 48 49 50
997
ASUS44 KLZK 270605
RWRLZK

WEATHER ROUNDUP FOR ARKANSAS
NATIONAL WEATHER SERVICE LITTLE ROCK AR
100 AM CDT SAT AUG 27 2016

NOTE: "FAIR" INDICATES FEW OR NO CLOUDS BELOW 12,000 FEET WITH NO
SIGNIFICANT WEATHER AND/OR OBSTRUCTIONS TO VISIBILITY.

ARZ001-003-010-029-270700-
NORTHWEST ARKANSAS

CITY           SKY/WX    TMP DP  RH WIND       PRES   REMARKS
FAYETTEVILLE   CLOUDY    69  69 100 CALM      30.06S
6HR MIN TEMP:  69; 6HR MAX TEMP:  75;

FORT SMITH     CLOUDY    76  71  85 CALM      30.01F
6HR MIN TEMP:  75; 6HR MAX TEMP:  81;

HARRISON       PTCLDY    73  71  93 CALM      30.07S
6HR MIN TEMP:  73; 6HR MAX TEMP:  79;

BENTONVILLE    CLOUDY    72  66  83 CALM      30.06F
6HR MIN TEMP:  72; 6HR MAX TEMP:  75;

ROGERS         CLOUDY    71  70  96 CALM      30.07F
6HR MIN TEMP:  71; 6HR MAX TEMP:  74;

SILOAM SPGS    CLOUDY    70  63  78 SE3       30.07F
6HR MIN TEMP:  70; 6HR MAX TEMP:  73;

HIGHFILL       CLOUDY    72  70  93 CALM      30.05F
6HR MIN TEMP:  71; 6HR MAX TEMP:  75;

$$

ARZ004-005-016-270700-
NORTH CENTRAL ARKANSAS

CITY           SKY/WX    TMP DP  RH WIND       PRES   REMARKS
BATESVILLE     CLEAR     72  70  94 SE3       30.04S
6HR MIN TEMP:  72; 6HR MAX TEMP:  86;

FLIPPIN        PTCLDY    72  66  83 SW3       30.02S
6HR MIN TEMP:  72; 6HR MAX TEMP:  82;

MTN HOME       CLEAR     72  72 100 CALM      30.04S
6HR MIN TEMP:  72; 6HR MAX TEMP:  80;

$$

ARZ040-041-270700-
WEST CENTRAL ARKANSAS

CITY           SKY/WX    TMP DP  RH WIND       PRES   REMARKS
MENA           CLOUDY    73  72  94 CALM      30.03F
MOUNT IDA      PTCLDY    74  72  93 CALM      30.01R
6HR MIN TEMP:  73; 6HR MAX TEMP:  83;

$$

ARZ009-017-025-026-028-270700-
NORTHEAST ARKANSAS

CITY           SKY/WX    TMP DP  RH WIND       PRES   REMARKS
CORNING          N/A     72  72 100 CALM      30.06R
JONESBORO      PTCLDY    72  71  97 E9        30.04S
6HR MIN TEMP:  72; 6HR MAX TEMP:  74;

NEWPORT        CLOUDY    73  71  93 E3        30.04R
6HR MIN TEMP:  72; 6HR MAX TEMP:  78;

WALNUT RIDGE   MOCLDY    72  70  94 NE6       30.05R
6HR MIN TEMP:  72; 6HR MAX TEMP:  77;

BLYTHEVILLE    CLOUDY    73  73 100 E3        30.06R
6HR MIN TEMP:  72; 6HR MAX TEMP:  74; 6HR PCP:  0.06;

$$

ARZ022-023-033-042-044-270700-
CENTRAL ARKANSAS

CITY           SKY/WX    TMP DP  RH WIND       PRES   REMARKS
LITTLE ROCK    MOCLDY    78  73  84 CALM      30.01F
6HR MIN TEMP:  78; 6HR MAX TEMP:  91; 6HR PCP:  0.11;

JACKSONVILLE   CLOUDY    75  75  99 CALM      30.01F
6HR MIN TEMP:  75; 6HR MAX TEMP:  88; 6HR PCP: TRACE;

SEARCY         CLOUDY    74  73  97 CALM      30.03F
6HR MIN TEMP:  74; 6HR MAX TEMP:  78;

HOT SPRINGS    CLEAR     76  72  87 E6        30.02F
6HR MIN TEMP:  76; 6HR MAX TEMP:  87;

RUSSELLVILLE   CLEAR     75  72  90 CALM      30.01S
6HR MIN TEMP:  75; 6HR MAX TEMP:  86;

$$

ARZ036-270700-
EAST ARKANSAS

CITY           SKY/WX    TMP DP  RH WIND       PRES   REMARKS
WEST MEMPHIS   MOCLDY    73  71  93 SE6       30.02F
6HR MIN TEMP:  71; 6HR MAX TEMP:  77;

$$

ARZ050-053-066-070-073-270700-
SOUTHWEST ARKANSAS

CITY           SKY/WX    TMP DP  RH WIND       PRES   REMARKS
ARKADELPHIA    MOCLDY    77  75  93 CALM      30.01S
6HR MIN TEMP:  77; 6HR MAX TEMP:  87;

TEXARKANA      PTCLDY    73  71  93 CALM      30.00S
6HR MIN TEMP:  73; 6HR MAX TEMP:  83;

EL DORADO      CLEAR     74  73  97 CALM      30.00S
6HR MIN TEMP:  74; 6HR MAX TEMP:  89;

DE QUEEN       FOG       74  74 100 CALM      29.98S VSB 1/4
6HR MIN TEMP:  74; 6HR MAX TEMP:  83;

$$

ARZ056-057-069-270700-
SOUTHEAST ARKANSAS

CITY           SKY/WX    TMP DP  RH WIND       PRES   REMARKS
PINE BLUFF     PTCLDY    74  72  93 CALM      30.01F
6HR MIN TEMP:  74; 6HR MAX TEMP:  82;

STUTTGART      CLOUDY    75  72  88 E7        30.01F
6HR MIN TEMP:  75; 6HR MAX TEMP:  81;

MONTICELLO     CLEAR     77  73  87 CALM      30.02R
6HR MIN TEMP:  76; 6HR MAX TEMP:  86;


$$






USA.gov is the U.S. government's official web portal to all federal, state and local government web resources and services.